View from above orbital plane
|
View from above satellite
|
Ground track
|
The orbit data is extracted from the following two-line orbital elements,
1 39059U 13001C 21026.25883522 .00000027 00000-0 12077-3 0 9996
2 39059 82.5049 5.4539 0026424 10.0490 350.1117 12.42972548364290
Epoch (UTC): | 26 January 2021 06:12:43 |
Eccentricity: | 0.0026424 |
inclination: | 82.5049° |
perigee height: | 1473 km |
apogee height: | 1515 km |
right ascension of ascending node: | 5.4539° |
argument of perigee: | 10.0490° |
revolutions per day: | 12.42972548 |
mean anomaly at epoch: | 350.1117° |
orbit number at epoch: | 36429 |
The dashed part of the orbit path shows where the satellite is in the earth's shadow,
|
|